Regional Weather Roundup
Issued by NWS Wakefield, VA

Home | Current Version | Previous Version | Graphics & Text | Print | Product List | Glossary On
Versions: 1 2 3 4 5 6 7 8 9 10 11 12 13 14 15 16 17 18 19 20 21 22 23 24 25 26 27 28 29 30 31 32 33 34 35 36 37 38 39 40 41 42 43 44 45 46 47 48 49 50
000
ASUS41 KAKQ 131710
RWRAKQ

REGIONAL WEATHER ROUNDUP
NATIONAL WEATHER SERVICE WAKEFIELD VA
100 PM EDT SUN JUL 13 2014

Note: "fair" indicates few or no clouds below 12,000 feet with no
significant weather and/or obstructions to visibility. * = Denotes
station may not report precipitation (e.g., rain,snow,etc.),
thunder or fog.

VAZ042-051-052>054-056-131800-
NORTHERN VIRGINIA

CITY           SKY/WX    TMP DP  RH WIND       PRES   REMARKS
WASH NATIONAL  PTSUNNY   88  72  58 S15       30.02F
DULLES         PTSUNNY   84  71  65 SW9       30.02F
FORT BELVOIR   MOSUNNY   88  72  59 S8        30.03F
QUANTICO       SUNNY     87  71  58 SW10      30.03F
FREDERICKSBRG* SUNNY     91  69  48 SW12G17   30.03F HX  96
STAFFORD*      SUNNY     89  70  54 S8        30.07F
WARRENTON      PTSUNNY   87  78  75 S3        30.03F HX 100
CULPEPER*      MOSUNNY  N/A N/A N/A SW7       30.03F
MANASSAS*      NOT AVBL
LEESBURG*      MOSUNNY   88  73  62 S10       30.03S HX  96
WINCHESTER     CLOUDY    82  70  65 S7        30.03S
$$

VAZ048-049-060>072-079>083-131800-
CENTRAL AND SOUTH CENTRAL VIRGINIA...AND NORTH CENTRAL NORTH CAROLINA

CITY           SKY/WX    TMP DP  RH WIND       PRES   REMARKS
RICHMOND       PTSUNNY   92  65  40 SW16G26   30.06F
CHESTERFIELD*  MOSUNNY   91  66  43 SW9G17    30.08
HANOVER        MOSUNNY   89  66  46 SW15      30.07F
TAPPAHANNOCK*  MOSUNNY   86  67  52 S5        30.07S
CHARLOTTSVILLE MOSUNNY   86  70  58 SW13      30.05F
ORANGE*        MOSUNNY   90  70  51 S9        30.06S HX  95
LOUISA*        MOSUNNY   88  70  55 SW8G16    30.05F
FARMVILLE*     PTSUNNY   86  70  58 S10       30.06F
SOUTH HILL*    MOSUNNY   91  68  46 S13       30.15F HX  95
ROANOKE RAPIDS SUNNY     90  72  55 S8        30.10F HX  96
RALEIGH        PTSUNNY   90  68  48 SW8       30.12F
$$

VAZ088>098-131800-
SOUTHEAST VIRGINIA

CITY           SKY/WX    TMP DP  RH WIND       PRES   REMARKS
NORFOLK        MOSUNNY   89  70  53 SW12      30.09F
VIRGINIA BEACH PTSUNNY   87  70  56 SW10      30.09F
NORFOLK NAVAL  PTSUNNY   89  69  51 S9        30.10F
WEST POINT*    MOSUNNY   90  70  51 S7        30.08F HX  95
NEWPORT NEWS   SUNNY     91  72  53 SW12      30.08F HX  98
LANGLEY AFB    MOSUNNY   87  72  61 SW13      30.07F
FORT EUSTIS    NOT AVBL
WILLIAMSBURG*  SUNNY     91  73  55 SW7       30.09F HX 100
FRANKLIN*      SUNNY     88  72  58 S9        30.09F
WAKEFIELD      SUNNY     89  69  51 SW7       30.08F
$$

VAZ020-022-025-037-045-131800-
WESTERN AND SOUTHWEST VIRGINIA

CITY           SKY/WX    TMP DP  RH WIND       PRES   REMARKS
STAUNTON*      MOSUNNY   88  62  41 W9G17     30.08F
HOT SPRINGS VA PTSUNNY   76  60  58 W10       30.25S
LYNCHBURG      MOSUNNY   81  69  67 S13       30.11F
DANVILLE       PTSUNNY   86  70  58 W7        30.11F
MARTINSVILLE   MOSUNNY   86  70  58 S7        30.14F
ROANOKE        MOSUNNY   87  67  51 SW8       30.11F
BLACKSBURG     MOSUNNY   82  72  69 W6        30.18S
DUBLIN*        MOSUNNY   85  66  52 W7        30.17F
MARION*        PTSUNNY   83  69  63 SW12      30.21F
HILLSVILLE*    MOSUNNY   82  66  58 W6        30.20F
RICHLANDS*     MOSUNNY   83  65  54 W7        30.19F
WISE*          MOSUNNY   82  63  51 SW15      30.21F
ABINGDON*      MOSUNNY   83  68  59 NW6       30.18F
$$

MDZ021>025-VAZ099-100-131800-
SOUTHERN MARYLAND AND THE DELMARVA PENINSULA

CITY           SKY/WX    TMP DP  RH WIND       PRES   REMARKS
PATUXENT RIVER PTSUNNY   86  71  60 SW13G21   30.04F
BAY BRIDGE APT   N/A     86  70  58 S9G17     30.03S
LEONARDTOWN    MOSUNNY   86  68  54 SW13      30.06F
DOVER          SUNNY     89  73  59 S18G29    30.01F HX  96
GEORGETOWN     MOSUNNY   89  72  56 S17       30.05F HX  96
EASTON         MOSUNNY   90  73  58 SW13G18   30.07F HX  98
CAMBRIDGE      MOSUNNY   86  70  58 S9G21     30.05S
SALISBURY      MOSUNNY   90  71  53 S17       30.06F HX  96
OCEAN CITY     MOSUNNY   80  73  79 S10G21    30.08F
WALLOPS ISLAND PTSUNNY   80  74  81 S16       30.09F
ACCOMACK*        N/A     84  73  70 S7        30.08F
$$

NCZ012>017-030>032-131800-
EASTERN NORTH CAROLINA

CITY           SKY/WX    TMP DP  RH WIND       PRES   REMARKS
ELIZABETH CITY PTSUNNY   85  74  69 S8        30.11F
AHOSKIE*       SUNNY     86  72  62 S6        30.11F
EDENTON*       PTSUNNY   84  71  65 S6        30.12F
CURRITUCK*     PTSUNNY   91  68  47 W7        30.12S
KILL DEVIL HLS PTSUNNY   84  72  67 S5        30.12F
MANTEO         NOT AVBL
CAPE HATTERAS  SUNNY     86  71  60 S8        30.15F
GOLDSBORO      MOSUNNY   87  74  66 S5        30.10F HX  95
WASHINGTON     PTSUNNY   84  72  67 SW7       30.13F
GREENVILLE     SUNNY     86  72  62 SW6       30.13F
NEW BERN       MOSUNNY   88  72  58 SW3       30.14F
WILMINGTON     PTSUNNY   86  74  67 S8        30.14F
$$

VAZ048-131800-
ELSEWHERE

CITY           SKY/WX    TMP DP  RH WIND       PRES   REMARKS
HARRISBURG PA  PTSUNNY   84  71  65 S8        29.98F
BALTIMORE      PTSUNNY   89  68  49 SW7G16    30.01F
ANNAPOLIS      SUNNY     87  73  62 S10       30.01F
ANDREWS AFB    MOSUNNY   88  73  60 S10       30.03F HX  96
WILMINGTON DE  MOSUNNY   87  72  60 SW15      30.02F
PHILADELPHIA   PTSUNNY   88  69  53 SW13G21   30.01F
WILDWOOD NJ*   SUNNY     81  70  69 S17       30.07F
ATLANTIC CITY  PTSUNNY   80  71  74 S13       30.05F
HENDERSON NC   PTSUNNY   90  61  38 S10       30.11F
GREENSBORO     PTSUNNY   86  68  54 SW8G16    30.12F
ROCKY MOUNT    SUNNY     87  71  58 VRB7      30.11F
FAYETTEVILLE   MOSUNNY   88  68  51 CALM      30.11F
CHARLOTTE      PTSUNNY   89  63  41 VRB3      30.14F
$$

VAZ100-131800-
MARINE

STATION/POSITION TIME  TEMP    WIND        PRES    WAVE   SWELL
                       AIR SEA DIR/SP/G            HT/PER HT/PER
                 (UTC) (F)     (DEG/KT/KT) (MB)    (FT/S) (FT/S)
44066 TX TWR #4  1700   73 72  210/ 12/ 14 1019.3F   2/ 6   2/ 6
CAPE MAY NJ      1700   74 72  180/ 12/ 18 1017.4F
LEWES DE         1700   87 68  220/  5/  9 1016.7F
15NM E FENWICK I 1700   74 74              1018.7F   2/ 7
OCEAN-CITY-INLET 1700   72 70  210/ 11/ 13 1018.3F
WACHAPREAGUE VA  1700   80 80  180/ 10/ 13 1018.6F
THOMAS POINT MD  1700   81 80  160/ 12/ 13 1017.0F
GOOSES REEF MD   1700   82     210/ 12/ 14 1017.7F
COVE POINT MD    1700   84     220/ 14/ 19 1017.4S
SOLOMONS ISLAND  1700      80                N/A
BISHOPS HEAD MD  1700   80 81  180/ 15/ 19 1017.7S
PINEY POINT MD   1700          220/  7/  8   N/A
POTOMAC MD       1700   82     220/  8/ 10 1017.2R
CAMBRIDGE MD     1700   85 81  200/ 10/ 16 1016.9F
LEWISETTA VA     1700   84 80  220/  8/ 11 1017.5F
RAPPAHANNOCK LGT 1700          180/ 16/ 17 1019.1F
STINGRAY PT      1700   83     200/ 10/ 12 1017.6F
YORK RVR RNG VA  1700   83     210/ 11/ 12 1018.0F
YORKTOWN VA      1700   85 80  220/  8/ 12 1018.2F
JAMESTOWN VA     1700   84     220/  8/ 16   N/A
DOMINION TERM VA 1700   83     220/  9/ 11 1019.1F
KIPTOPEKE VA     1700      77  180/ 12/ 13   N/A
CHES BAY BRIDGE  1700   84 74  190/ 11/ 12 1018.4F
CAPE HENRY VA    1700   86     180/  7/ 12 1018.0F
WILLOUBY STN VA  1700   90     220/ 10/ 12 1018.3F
S CRANEY ISL VA  1700          210/  7/ 13 1019.0F
CAPE HENRY BUOY  1700      77                N/A     2/ 7
1ST LANDING BUOY 1700   82     210/  6/  8 1018.8F
CAPE CHARLES BUO 1700      72                N/A     2/ 8
OFFSHORE WE BUOY 1700      77                N/A     2/ 7
64NM E OF VA BCH 1700   76 78  150/  8/ 10 1020.0F   2/ 7   2/ 7
DUCK PIER NC     1700   78 72  140/ 10/ 12 1019.4F
44056 DUCK FRF   1700                        N/A     1/ 8
OREGON INLET NC  1700   79 79  120/  9/ 12 1020.5F
HATTERAS NC      1700   81 81  140/  6/  8 1021.3F
DIAMOND SHLS NC  1700           CALM  /  2 1021.1R   2/ 6   2/ 6
CAPE LOOKOUT NC  1600   81     210/  5/  7 1021.1S
$$


USA.gov is the U.S. government's official web portal to all federal, state and local government web resources and services.